CCR1019 SSFB-SSMR

Flight info

Callsign CCR1019
Flight time 0h 36m
Altitude 19000
Route 253718S0523721W DCT 252312S0522410W 245931S0515914W DCT 244542S0514602W
Aircraft SF50/L-SDGRWY/L

Departure

Time 2026-04-21 20:12
Airport Paulo Abdala Airport (SSFB)

Arrival

Time 2026-04-21 20:48
Airport Manoel Ribas Airport (SSMR)
Time Latitude Longitude Altitude Speed Heading
2026-04-21 20:10 -26.05983 -53.06596 2129 ft 0 kts 112°
2026-04-21 20:10 -26.05988 -53.06584 2126 ft 8 kts 114°
2026-04-21 20:10 -26.05980 -53.06488 2125 ft 24 kts 60°
2026-04-21 20:10 -26.05861 -53.06264 2119 ft 41 kts 62°
2026-04-21 20:11 -26.05782 -53.06114 2116 ft 28 kts 56°
2026-04-21 20:11 -26.05704 -53.05948 2117 ft 4 kts 139°
2026-04-21 20:11 -26.05791 -53.06109 2116 ft 55 kts 243°
2026-04-21 20:11 -26.06080 -53.06645 2130 ft 105 kts 239°
2026-04-21 20:12 -26.06488 -53.07460 2443 ft 117 kts 252°
2026-04-21 20:12 -26.06324 -53.08250 2836 ft 122 kts 329°
2026-04-21 20:12 -26.05499 -53.07928 3270 ft 154 kts 67°
2026-04-21 20:12 -26.05546 -53.06739 4075 ft 162 kts 106°
2026-04-21 20:13 -26.05710 -53.05391 4227 ft 186 kts 73°
2026-04-21 20:13 -26.04911 -53.04432 4895 ft 168 kts 19°
2026-04-21 20:13 -26.03786 -53.04072 5360 ft 171 kts 18°
2026-04-21 20:13 -26.02739 -53.03410 5838 ft 175 kts 37°
2026-04-21 20:14 -26.01828 -53.02497 6317 ft 177 kts 41°
2026-04-21 20:14 -26.00915 -53.01556 6777 ft 181 kts 40°
2026-04-21 20:14 -25.99984 -53.00608 7214 ft 182 kts 40°
2026-04-21 20:14 -25.99029 -52.99637 7589 ft 188 kts 40°
2026-04-21 20:15 -25.98064 -52.98654 8022 ft 188 kts 40°
2026-04-21 20:15 -25.97090 -52.97665 8441 ft 191 kts 40°
2026-04-21 20:15 -25.96107 -52.96663 8853 ft 193 kts 40°
2026-04-21 20:15 -25.95113 -52.95654 9276 ft 194 kts 40°
2026-04-21 20:16 -25.94112 -52.94632 9703 ft 196 kts 40°
2026-04-21 20:16 -25.93096 -52.93600 10100 ft 199 kts 40°
2026-04-21 20:16 -25.92075 -52.92558 10484 ft 200 kts 40°
2026-04-21 20:16 -25.91046 -52.91514 10859 ft 202 kts 40°
2026-04-21 20:17 -25.90021 -52.90471 11235 ft 203 kts 39°
2026-04-21 20:17 -25.88974 -52.89410 11624 ft 204 kts 39°
2026-04-21 20:17 -25.87922 -52.88339 12004 ft 206 kts 39°
2026-04-21 20:17 -25.86860 -52.87261 12375 ft 208 kts 39°
2026-04-21 20:18 -25.86139 -52.86529 12630 ft 208 kts 39°
2026-04-21 20:18 -25.84707 -52.85080 13017 ft 217 kts 39°
2026-04-21 20:18 -25.83544 -52.83901 13029 ft 235 kts 39°
2026-04-21 20:18 -25.82299 -52.82636 13030 ft 249 kts 39°
2026-04-21 20:19 -25.80996 -52.81307 13030 ft 259 kts 39°
2026-04-21 20:19 -25.79647 -52.79939 13030 ft 266 kts 39°
2026-04-21 20:19 -25.78270 -52.78543 13030 ft 270 kts 39°
2026-04-21 20:19 -25.76875 -52.77127 13029 ft 273 kts 39°
2026-04-21 20:20 -25.75469 -52.75704 13028 ft 275 kts 40°
2026-04-21 20:20 -25.74054 -52.74273 13029 ft 276 kts 40°
2026-04-21 20:20 -25.72635 -52.72836 13029 ft 277 kts 40°
2026-04-21 20:20 -25.71208 -52.71392 13029 ft 278 kts 40°
2026-04-21 20:21 -25.69779 -52.69945 13031 ft 278 kts 40°
2026-04-21 20:21 -25.68341 -52.68493 13030 ft 279 kts 39°
2026-04-21 20:21 -25.66907 -52.67045 13031 ft 279 kts 40°
2026-04-21 20:21 -25.65473 -52.65593 13038 ft 279 kts 39°
2026-04-21 20:22 -25.64054 -52.64158 13037 ft 280 kts 40°
2026-04-21 20:22 -25.61137 -52.61293 13036 ft 279 kts 37°
2026-04-21 20:22 -25.59652 -52.59906 13035 ft 280 kts 38°
2026-04-21 20:23 -25.58169 -52.58508 13035 ft 280 kts 38°
2026-04-21 20:23 -25.56684 -52.57117 13037 ft 280 kts 37°
2026-04-21 20:23 -25.55195 -52.55726 13038 ft 280 kts 37°
2026-04-21 20:23 -25.53708 -52.54335 13038 ft 280 kts 37°
2026-04-21 20:24 -25.52221 -52.52942 13038 ft 280 kts 38°
2026-04-21 20:24 -25.50734 -52.51550 13038 ft 280 kts 37°
2026-04-21 20:24 -25.49245 -52.50158 13038 ft 280 kts 37°
2026-04-21 20:24 -25.47756 -52.48767 13037 ft 280 kts 38°
2026-04-21 20:25 -25.46270 -52.47377 13036 ft 280 kts 37°
2026-04-21 20:25 -25.44781 -52.45986 13038 ft 280 kts 38°
2026-04-21 20:25 -25.43288 -52.44594 13037 ft 280 kts 38°
2026-04-21 20:25 -25.41799 -52.43205 13036 ft 280 kts 38°
2026-04-21 20:26 -25.40311 -52.41819 13036 ft 280 kts 38°
2026-04-21 20:26 -25.38821 -52.40428 13035 ft 279 kts 38°
2026-04-21 20:26 -25.37405 -52.38956 13034 ft 280 kts 41°
2026-04-21 20:26 -25.36006 -52.37465 13034 ft 280 kts 41°
2026-04-21 20:27 -25.34617 -52.35999 13037 ft 280 kts 41°
2026-04-21 20:27 -25.33210 -52.34514 13037 ft 280 kts 41°
2026-04-21 20:27 -25.31803 -52.33026 13037 ft 280 kts 41°
2026-04-21 20:27 -25.30393 -52.31538 13037 ft 280 kts 41°
2026-04-21 20:28 -25.28983 -52.30052 13040 ft 280 kts 41°
2026-04-21 20:28 -25.27573 -52.28564 13039 ft 280 kts 41°
2026-04-21 20:28 -25.26164 -52.27078 13036 ft 280 kts 41°
2026-04-21 20:28 -25.24756 -52.25593 13036 ft 280 kts 41°
2026-04-21 20:29 -25.23348 -52.24108 13038 ft 280 kts 41°
2026-04-21 20:29 -25.21939 -52.22624 13035 ft 280 kts 41°
2026-04-21 20:29 -25.20529 -52.21138 13037 ft 280 kts 41°
2026-04-21 20:29 -25.19119 -52.19653 13038 ft 280 kts 41°
2026-04-21 20:30 -25.17708 -52.18168 13039 ft 280 kts 41°
2026-04-21 20:30 -25.16297 -52.16683 13040 ft 280 kts 41°
2026-04-21 20:30 -25.14887 -52.15198 13042 ft 280 kts 41°
2026-04-21 20:30 -25.13479 -52.13718 13039 ft 280 kts 41°
2026-04-21 20:31 -25.12068 -52.12238 13044 ft 280 kts 41°
2026-04-21 20:31 -25.10677 -52.10775 13041 ft 280 kts 41°
2026-04-21 20:31 -25.09250 -52.09279 13046 ft 279 kts 41°
2026-04-21 20:31 -25.07861 -52.07818 13043 ft 279 kts 42°
2026-04-21 20:32 -25.06455 -52.06339 13041 ft 279 kts 42°
2026-04-21 20:32 -25.05048 -52.04863 13041 ft 279 kts 41°
2026-04-21 20:32 -25.03640 -52.03386 13043 ft 279 kts 42°
2026-04-21 20:32 -25.02231 -52.01909 13043 ft 279 kts 42°
2026-04-21 20:33 -25.00824 -52.00434 13046 ft 279 kts 42°
2026-04-21 20:33 -24.99420 -51.98962 13051 ft 279 kts 42°
2026-04-21 20:33 -24.97967 -51.97556 13049 ft 278 kts 39°
2026-04-21 20:33 -24.96507 -51.96160 13051 ft 278 kts 39°
2026-04-21 20:34 -24.95049 -51.94757 13047 ft 278 kts 39°
2026-04-21 20:34 -24.93587 -51.93358 13047 ft 278 kts 39°
2026-04-21 20:34 -24.92125 -51.91960 13047 ft 278 kts 39°
2026-04-21 20:34 -24.90666 -51.90566 13048 ft 278 kts 39°
2026-04-21 20:35 -24.89205 -51.89166 13051 ft 278 kts 39°
2026-04-21 20:35 -24.87738 -51.87767 12977 ft 281 kts 39°
2026-04-21 20:35 -24.86233 -51.86329 12653 ft 292 kts 39°
2026-04-21 20:35 -24.84674 -51.84840 12274 ft 301 kts 40°
2026-04-21 20:36 -24.83085 -51.83320 11880 ft 301 kts 40°
2026-04-21 20:36 -24.81566 -51.81868 11493 ft 278 kts 40°
2026-04-21 20:36 -24.80170 -51.80541 11139 ft 254 kts 40°
2026-04-21 20:36 -24.78889 -51.79322 10825 ft 232 kts 41°
2026-04-21 20:37 -24.77711 -51.78201 10533 ft 217 kts 41°
2026-04-21 20:37 -24.76582 -51.77179 10255 ft 205 kts 34°
2026-04-21 20:37 -24.75316 -51.76609 9994 ft 196 kts 13°
2026-04-21 20:37 -24.73988 -51.76407 9720 ft 189 kts
2026-04-21 20:38 -24.72705 -51.76213 9472 ft 183 kts
2026-04-21 20:38 -24.71457 -51.76020 9231 ft 178 kts
2026-04-21 20:38 -24.70242 -51.75838 8996 ft 175 kts
2026-04-21 20:38 -24.69049 -51.75657 8772 ft 172 kts
2026-04-21 20:39 -24.67871 -51.75481 8544 ft 170 kts
2026-04-21 20:39 -24.66707 -51.75305 8319 ft 168 kts
2026-04-21 20:39 -24.65553 -51.75133 8102 ft 166 kts
2026-04-21 20:39 -24.64425 -51.74961 7964 ft 159 kts
2026-04-21 20:40 -24.63372 -51.74807 7933 ft 146 kts
2026-04-21 20:40 -24.62401 -51.74662 7910 ft 136 kts
2026-04-21 20:40 -24.61494 -51.74530 7886 ft 128 kts
2026-04-21 20:40 -24.60597 -51.74396 7861 ft 138 kts
2026-04-21 20:41 -24.59588 -51.74240 7572 ft 153 kts
2026-04-21 20:41 -24.58493 -51.74070 7200 ft 164 kts
2026-04-21 20:41 -24.57326 -51.73890 6796 ft 173 kts
2026-04-21 20:41 -24.56106 -51.73705 6362 ft 180 kts
2026-04-21 20:42 -24.54876 -51.73520 6029 ft 178 kts
2026-04-21 20:42 -24.53670 -51.73340 5788 ft 172 kts
2026-04-21 20:42 -24.52505 -51.73165 5560 ft 167 kts
2026-04-21 20:42 -24.51406 -51.73000 5433 ft 146 kts
2026-04-21 20:43 -24.50488 -51.72864 5406 ft 122 kts
2026-04-21 20:43 -24.49694 -51.72749 5367 ft 109 kts
2026-04-21 20:43 -24.48933 -51.72639 5349 ft 115 kts
2026-04-21 20:43 -24.48145 -51.72519 5359 ft 113 kts
2026-04-21 20:44 -24.47368 -51.72403 5359 ft 113 kts
2026-04-21 20:44 -24.46593 -51.72285 5356 ft 113 kts
2026-04-21 20:44 -24.45800 -51.72165 5211 ft 121 kts
2026-04-21 20:44 -24.45023 -51.71847 4978 ft 119 kts 42°
2026-04-21 20:45 -24.44585 -51.71114 4809 ft 113 kts 73°
2026-04-21 20:45 -24.44569 -51.70282 4656 ft 108 kts 104°
2026-04-21 20:45 -24.44927 -51.69587 4516 ft 105 kts 135°
2026-04-21 20:45 -24.45564 -51.69160 4387 ft 111 kts 155°
2026-04-21 20:46 -24.46263 -51.68784 4241 ft 112 kts 151°
2026-04-21 20:46 -24.46957 -51.68403 4088 ft 111 kts 153°
2026-04-21 20:46 -24.47642 -51.68028 3939 ft 109 kts 152°
2026-04-21 20:46 -24.48317 -51.67663 3793 ft 108 kts 152°
2026-04-21 20:47 -24.48976 -51.67303 3713 ft 102 kts 152°
2026-04-21 20:47 -24.49671 -51.66924 3734 ft 118 kts 153°
2026-04-21 20:47 -24.50398 -51.66536 3652 ft 118 kts 153°
2026-04-21 20:47 -24.51203 -51.66104 3187 ft 136 kts 153°
2026-04-21 20:48 -24.52025 -51.65663 2997 ft 125 kts 154°
2026-04-21 20:48 -24.52735 -51.65273 2889 ft 98 kts 153°
2026-04-21 20:48 -24.53088 -51.65079 2881 ft 70 kts 177°
2026-04-21 20:48 -24.53243 -51.65005 2880 ft 14 kts 326°
2026-04-21 20:49 -24.53189 -51.65034 2881 ft 0 kts 301°
2026-04-21 20:49 -24.53226 -51.65064 2881 ft 15 kts 238°
2026-04-21 20:49 -24.53271 -51.65107 2880 ft 0 kts 163°